Starlink 5328

operational
NORAD ID: 55657 Int'l Des: 2023-021 Owner: SPXS Country: US Constellation: starlink
LEOCIRCULAR

Starlink 5328について

説明を読み込み中...

リアルタイム位置

3D地球を読み込み中...

次回通過

高度履歴

Altitude vs Time

uPlot chart will show altitude changes over time

軌道要素

1 55657U 23021AF 25347.32297315 .00001323 00000-0 11865-3 0 9992
2 55657 70.0003 22.3782 0003049 267.8415 92.2395 14.98325329156348
Epoch: Dec 13, 2025 • Age: 11 hours

現在のステータス

高度 574.6 km
速度 7.57 km/s
衛星直下点 17.26°N, 19.21°E
打ち上げ日 Feb 17, 2023
運用期間 2.8 years
タイプ internet

技術仕様

分類 Payload
質量 305.00 kg
乾燥質量 290.00 kg
総質量 305.00 kg
長さ 0.20 m
直径 2.80 m
スパン 9.00 m
形状 Box + pan
製造者 SPXS
バスタイプ Starlink
フェーズステータス In Orbit
所有者/国 SPXS/US

大規模コンステレーション

Loading constellations...